Time,TemperatureF,DewpointF,PressureIn,WindDirection,WindDirectionDegrees,WindSpeedMPH,WindSpeedGustMPH,Humidity,HourlyPrecipIn,Conditions,Clouds,dailyrainin,SoftwareType,DateUTC
2013-03-18 00:00:00,32.2,27.9,29.81,ESE,112,7.3,7.8,84,0.00,CLR,,0.00,WeatherDisplay:10.37,2013-03-18 05:00:00,
2013-03-18 00:05:00,32.2,28.2,29.81,East,90,3.5,3.5,85,0.00,CLR,,0.00,WeatherDisplay:10.37,2013-03-18 05:05:00,
2013-03-18 00:10:00,32.2,28.2,29.81,East,90,2.2,2.2,85,0.00,CLR,,0.00,WeatherDisplay:10.37,2013-03-18 05:10:00,
2013-03-18 00:15:00,32.2,28.2,29.81,ESE,112,4.6,4.6,85,0.00,CLR,,0.00,WeatherDisplay:10.37,2013-03-18 05:15:00,
2013-03-18 00:20:00,32.2,28.2,29.81,ESE,112,3.5,3.5,85,0.00,CLR,,0.00,WeatherDisplay:10.37,2013-03-18 05:20:00,
2013-03-18 00:25:00,32.0,28.3,29.81,ESE,112,2.3,2.4,86,0.00,CLR,,0.00,WeatherDisplay:10.37,2013-03-18 05:25:00,
2013-03-18 00:30:00,31.8,28.1,29.81,ESE,112,1.1,0.0,86,0.00,CLR,,0.00,WeatherDisplay:10.37,2013-03-18 05:30:00,
2013-03-18 00:35:00,31.8,28.1,29.81,ESE,112,5.7,5.7,86,0.00,CLR,,0.00,WeatherDisplay:10.37,2013-03-18 05:35:00,
2013-03-18 00:40:00,31.8,28.1,29.81,ESE,112,5.8,5.8,86,0.00,CLR,,0.00,WeatherDisplay:10.37,2013-03-18 05:40:00,
2013-03-18 00:45:00,32.2,28.5,29.79,SE,135,8.1,8.7,86,0.00,CLR,,0.00,WeatherDisplay:10.37,2013-03-18 05:45:00,
2013-03-18 00:50:00,32.0,28.6,29.79,ESE,112,5.8,5.8,87,0.00,CLR,,0.00,WeatherDisplay:10.37,2013-03-18 05:50:00,
2013-03-18 00:55:00,31.8,28.4,29.79,SE,135,0.0,0.1,87,0.00,CLR,,0.00,WeatherDisplay:10.37,2013-03-18 05:55:00,
2013-03-18 01:00:00,31.8,28.4,29.79,SE,135,4.6,4.6,87,0.00,CLR,,0.00,WeatherDisplay:10.37,2013-03-18 06:00:00,
2013-03-18 01:05:00,32.0,28.6,29.81,SSE,158,0.0,0.0,87,0.00,CLR,,0.00,WeatherDisplay:10.37,2013-03-18 06:05:00,
2013-03-18 01:10:00,31.8,28.4,29.81,SE,135,0.0,0.0,87,0.00,CLR,,0.00,WeatherDisplay:10.37,2013-03-18 06:10:00,
2013-03-18 01:15:00,31.8,28.4,29.81,South,180,6.9,6.9,87,0.00,CLR,,0.00,WeatherDisplay:10.37,2013-03-18 06:15:00,
2013-03-18 01:20:00,31.8,28.4,29.79,SSE,158,4.3,4.3,87,0.00,CLR,,0.00,WeatherDisplay:10.37,2013-03-18 06:20:00,
2013-03-18 01:25:00,31.8,28.7,29.81,SE,135,0.0,0.0,88,0.00,CLR,,0.00,WeatherDisplay:10.37,2013-03-18 06:25:00,
2013-03-18 01:30:00,31.8,28.7,29.81,SSE,158,0.0,0.0,88,0.00,CLR,,0.00,WeatherDisplay:10.37,2013-03-18 06:30:00,
2013-03-18 01:35:00,31.6,28.8,29.81,SSE,158,0.0,0.0,89,0.00,CLR,,0.00,WeatherDisplay:10.37,2013-03-18 06:35:00,
2013-03-18 01:40:00,31.6,28.8,29.81,SSE,158,1.6,1.7,89,0.00,CLR,,0.00,WeatherDisplay:10.37,2013-03-18 06:40:00,
2013-03-18 01:45:00,31.8,28.9,29.79,SE,135,0.0,0.0,89,0.00,CLR,,0.00,WeatherDisplay:10.37,2013-03-18 06:45:00,
2013-03-18 01:50:00,31.6,28.8,29.79,SE,135,1.6,1.6,89,0.00,CLR,,0.00,WeatherDisplay:10.37,2013-03-18 06:50:00,
2013-03-18 01:55:00,31.5,28.9,29.78,SE,135,7.0,7.4,90,0.00,CLR,,0.00,WeatherDisplay:10.37,2013-03-18 06:55:00,
2013-03-18 02:00:00,31.3,28.7,29.77,SE,135,6.9,7.2,90,0.00,CLR,,0.00,WeatherDisplay:10.37,2013-03-18 07:00:00,
2013-03-18 02:05:00,31.1,28.5,29.76,East,90,9.7,9.7,90,0.00,CLR,,0.00,WeatherDisplay:10.37,2013-03-18 07:05:00,
2013-03-18 02:10:00,31.1,28.8,29.76,SE,135,8.1,8.1,91,0.00,CLR,,0.00,WeatherDisplay:10.37,2013-03-18 07:10:00,
2013-03-18 02:15:00,30.9,28.6,29.76,SE,135,9.2,9.3,91,0.00,CLR,,0.00,WeatherDisplay:10.37,2013-03-18 07:15:00,
2013-03-18 02:20:00,30.9,28.9,29.75,SE,135,8.1,8.1,92,0.00,CLR,,0.00,WeatherDisplay:10.37,2013-03-18 07:20:00,
2013-03-18 02:25:00,30.7,28.7,29.76,SE,135,8.1,8.1,92,0.00,CLR,,0.00,WeatherDisplay:10.37,2013-03-18 07:25:00,
2013-03-18 02:30:00,30.7,28.7,29.75,SSE,158,2.3,2.3,92,0.00,CLR,,0.00,WeatherDisplay:10.37,2013-03-18 07:30:00,
2013-03-18 02:35:00,30.6,28.8,29.76,SE,135,6.9,7.2,93,0.00,CLR,,0.00,WeatherDisplay:10.37,2013-03-18 07:35:00,
2013-03-18 02:40:00,30.6,28.8,29.75,SE,135,8.1,8.1,93,0.00,CLR,,0.00,WeatherDisplay:10.37,2013-03-18 07:40:00,
2013-03-18 02:45:00,30.6,28.8,29.74,SE,135,4.9,5.2,93,0.00,CLR,,0.00,WeatherDisplay:10.37,2013-03-18 07:45:00,
2013-03-18 02:50:00,30.6,28.8,29.74,SE,135,8.1,8.1,93,0.00,CLR,,0.00,WeatherDisplay:10.37,2013-03-18 07:50:00,
2013-03-18 02:55:00,30.6,29.0,29.74,SE,135,4.6,4.6,94,0.00,CLR,,0.00,WeatherDisplay:10.37,2013-03-18 07:55:00,
2013-03-18 03:00:00,30.6,29.0,29.74,SE,135,5.1,5.5,94,0.00,CLR,,0.00,WeatherDisplay:10.37,2013-03-18 08:00:00,
2013-03-18 03:05:00,30.6,29.0,29.74,SSE,158,6.9,7.3,94,0.00,CLR,,0.00,WeatherDisplay:10.37,2013-03-18 08:05:00,
2013-03-18 03:10:00,30.7,29.2,29.74,ESE,112,2.3,2.3,94,0.00,CLR,,0.00,WeatherDisplay:10.37,2013-03-18 08:10:00,
2013-03-18 03:15:00,30.7,29.5,29.73,SE,135,4.3,4.3,95,0.00,CLR,,0.00,WeatherDisplay:10.37,2013-03-18 08:15:00,
2013-03-18 03:20:00,30.7,29.5,29.73,SE,135,0.0,0.0,95,0.00,CLR,,0.00,WeatherDisplay:10.37,2013-03-18 08:20:00,
2013-03-18 03:25:00,30.6,29.3,29.73,SE,135,4.6,4.6,95,0.00,CLR,,0.00,WeatherDisplay:10.37,2013-03-18 08:25:00,
2013-03-18 03:30:00,30.7,29.5,29.73,SE,135,8.1,8.5,95,0.00,CLR,,0.00,WeatherDisplay:10.37,2013-03-18 08:30:00,
2013-03-18 03:35:00,30.7,29.5,29.73,South,180,8.1,8.1,95,0.00,CLR,,0.00,WeatherDisplay:10.37,2013-03-18 08:35:00,
2013-03-18 03:40:00,30.7,29.5,29.72,SSE,158,4.6,4.6,95,0.00,CLR,,0.00,WeatherDisplay:10.37,2013-03-18 08:40:00,
2013-03-18 03:45:00,30.7,29.5,29.71,SE,135,9.2,9.2,95,0.00,CLR,,0.00,WeatherDisplay:10.37,2013-03-18 08:45:00,
2013-03-18 03:50:00,30.7,29.5,29.71,SE,135,11.5,11.5,95,0.00,CLR,,0.00,WeatherDisplay:10.37,2013-03-18 08:50:00,
2013-03-18 03:55:00,30.6,29.3,29.70,SSE,158,9.2,9.8,95,0.00,CLR,,0.00,WeatherDisplay:10.37,2013-03-18 08:55:00,
2013-03-18 04:00:00,30.6,29.3,29.71,SSE,158,10.5,11.6,95,0.00,CLR,,0.00,WeatherDisplay:10.37,2013-03-18 09:00:00,
2013-03-18 04:05:00,30.7,29.5,29.71,SE,135,12.7,12.7,95,0.00,CLR,,0.00,WeatherDisplay:10.37,2013-03-18 09:05:00,
2013-03-18 04:10:00,30.7,29.5,29.70,SSE,158,8.1,8.1,95,0.00,CLR,,0.00,WeatherDisplay:10.37,2013-03-18 09:10:00,
2013-03-18 04:15:00,30.7,29.5,29.70,SSE,158,11.6,12.0,95,0.00,CLR,,0.00,WeatherDisplay:10.37,2013-03-18 09:15:00,
2013-03-18 04:20:00,30.6,29.6,29.70,SSE,158,8.1,8.4,96,0.00,CLR,,0.00,WeatherDisplay:10.37,2013-03-18 09:20:00,
2013-03-18 04:25:00,30.7,29.7,29.71,SSE,158,11.5,11.9,96,0.00,CLR,,0.00,WeatherDisplay:10.37,2013-03-18 09:25:00,
2013-03-18 04:30:00,30.7,29.7,29.71,SSE,158,10.5,10.5,96,0.00,CLR,,0.00,WeatherDisplay:10.37,2013-03-18 09:30:00,
2013-03-18 04:35:00,30.9,29.9,29.71,SSE,158,10.4,10.4,96,0.00,CLR,,0.00,WeatherDisplay:10.37,2013-03-18 09:35:00,
2013-03-18 04:40:00,30.9,29.9,29.73,SSW,202,8.1,8.1,96,0.00,CLR,,0.00,WeatherDisplay:10.37,2013-03-18 09:40:00,
2013-03-18 04:45:00,31.1,30.1,29.73,SSW,202,7.0,7.1,96,0.00,CLR,,0.00,WeatherDisplay:10.37,2013-03-18 09:45:00,
2013-03-18 04:50:00,31.1,30.1,29.73,SW,225,4.6,4.6,96,0.00,CLR,,0.00,WeatherDisplay:10.37,2013-03-18 09:50:00,
2013-03-18 04:55:00,31.3,30.3,29.73,SW,225,5.8,6.4,96,0.00,CLR,,0.00,WeatherDisplay:10.37,2013-03-18 09:55:00,
2013-03-18 05:00:00,31.3,30.3,29.73,SW,225,6.9,6.9,96,0.00,CLR,,0.00,WeatherDisplay:10.37,2013-03-18 10:00:00,
2013-03-18 05:05:00,31.3,30.3,29.72,SSW,202,6.9,6.9,96,0.00,CLR,,0.00,WeatherDisplay:10.37,2013-03-18 10:05:00,
2013-03-18 05:10:00,31.3,30.3,29.72,SSW,202,4.9,5.2,96,0.00,CLR,,0.00,WeatherDisplay:10.37,2013-03-18 10:10:00,
2013-03-18 05:15:00,31.5,30.5,29.72,SSW,202,6.9,7.2,96,0.00,CLR,,0.00,WeatherDisplay:10.37,2013-03-18 10:15:00,
2013-03-18 05:20:00,31.5,30.5,29.72,SSW,202,2.3,0.0,96,0.00,CLR,,0.00,WeatherDisplay:10.37,2013-03-18 10:20:00,
2013-03-18 05:25:00,31.5,30.5,29.71,SSW,202,0.0,0.0,96,0.00,CLR,,0.00,WeatherDisplay:10.37,2013-03-18 10:25:00,
2013-03-18 05:30:00,31.5,30.5,29.72,SSW,202,0.0,0.0,96,0.00,CLR,,0.00,WeatherDisplay:10.37,2013-03-18 10:30:00,
2013-03-18 05:35:00,31.5,30.5,29.71,SSW,202,0.0,0.0,96,0.00,CLR,,0.00,WeatherDisplay:10.37,2013-03-18 10:35:00,
2013-03-18 05:40:00,31.5,30.5,29.71,SSW,202,0.0,0.0,96,0.00,CLR,,0.00,WeatherDisplay:10.37,2013-03-18 10:40:00,
2013-03-18 05:45:00,31.5,30.5,29.71,SSW,202,0.0,0.0,96,0.00,CLR,,0.00,WeatherDisplay:10.37,2013-03-18 10:45:00,
2013-03-18 05:50:00,31.5,30.5,29.71,SSW,202,0.0,0.0,96,0.00,CLR,,0.00,WeatherDisplay:10.37,2013-03-18 10:50:00,
2013-03-18 05:55:00,31.6,30.6,29.71,SSW,202,0.0,0.0,96,0.00,CLR,,0.00,WeatherDisplay:10.37,2013-03-18 10:55:00,
2013-03-18 06:00:00,31.6,30.6,29.71,SSW,202,0.0,0.0,96,0.00,CLR,,0.00,WeatherDisplay:10.37,2013-03-18 11:00:00,
2013-03-18 06:05:00,31.5,30.5,29.71,SSW,202,0.0,0.0,96,0.00,CLR,,0.00,WeatherDisplay:10.37,2013-03-18 11:05:00,
2013-03-18 06:10:00,31.6,30.6,29.71,SSW,202,0.0,0.0,96,0.00,CLR,,0.00,WeatherDisplay:10.37,2013-03-18 11:10:00,
2013-03-18 06:15:00,31.6,30.6,29.71,SSW,202,0.0,0.0,96,0.00,CLR,,0.00,WeatherDisplay:10.37,2013-03-18 11:15:00,
2013-03-18 06:20:00,31.6,30.6,29.71,SSW,202,0.0,0.0,96,0.00,CLR,,0.00,WeatherDisplay:10.37,2013-03-18 11:20:00,
2013-03-18 06:25:00,31.6,30.6,29.71,SSW,202,0.0,0.0,96,0.00,CLR,,0.00,WeatherDisplay:10.37,2013-03-18 11:25:00,
2013-03-18 06:30:00,31.6,30.6,29.70,SSW,202,0.0,0.0,96,0.00,CLR,,0.00,WeatherDisplay:10.37,2013-03-18 11:30:00,
2013-03-18 06:35:00,31.6,30.6,29.71,SSW,202,0.0,0.0,96,0.00,CLR,,0.00,WeatherDisplay:10.37,2013-03-18 11:35:00,
2013-03-18 06:40:00,31.6,30.6,29.71,SSW,202,0.0,0.0,96,0.00,CLR,,0.00,WeatherDisplay:10.37,2013-03-18 11:40:00,
2013-03-18 06:45:00,31.6,30.6,29.71,SSW,202,0.0,0.0,96,0.00,CLR,,0.00,WeatherDisplay:10.37,2013-03-18 11:45:00,
2013-03-18 06:50:00,31.8,30.8,29.70,SSW,202,0.0,0.0,96,0.00,CLR,,0.00,WeatherDisplay:10.37,2013-03-18 11:50:00,
2013-03-18 06:55:00,31.8,30.8,29.70,SSW,202,0.0,0.0,96,0.00,CLR,,0.00,WeatherDisplay:10.37,2013-03-18 11:55:00,
2013-03-18 07:00:00,32.0,31.0,29.71,SSW,202,0.0,0.0,96,0.00,CLR,,0.00,WeatherDisplay:10.37,2013-03-18 12:00:00,
2013-03-18 07:06:00,32.2,31.2,29.70,SSW,202,0.0,0.0,96,0.00,CLR,,0.00,WeatherDisplay:10.37,2013-03-18 12:06:00,
2013-03-18 07:11:00,32.2,31.2,29.70,SSW,202,0.0,0.0,96,0.00,CLR,,0.00,WeatherDisplay:10.37,2013-03-18 12:11:00,
2013-03-18 07:16:00,32.2,31.2,29.71,SSW,202,0.0,0.0,96,0.00,CLR,,0.00,WeatherDisplay:10.37,2013-03-18 12:16:00,
2013-03-18 07:21:00,32.2,31.2,29.70,SSW,202,0.0,0.0,96,0.00,CLR,,0.00,WeatherDisplay:10.37,2013-03-18 12:21:00,
2013-03-18 07:26:00,32.4,31.3,29.70,SSW,202,0.0,0.0,96,0.00,CLR,,0.00,WeatherDisplay:10.37,2013-03-18 12:26:00,
2013-03-18 07:31:00,32.4,31.3,29.70,SSW,202,0.0,0.0,96,0.00,CLR,,0.00,WeatherDisplay:10.37,2013-03-18 12:31:00,
2013-03-18 07:36:00,32.4,31.3,29.70,SSW,202,0.0,0.0,96,0.00,CLR,,0.00,WeatherDisplay:10.37,2013-03-18 12:36:00,
2013-03-18 07:41:00,32.7,31.7,29.70,WSW,248,0.0,0.0,96,0.00,CLR,,0.00,WeatherDisplay:10.37,2013-03-18 12:41:00,
2013-03-18 07:46:00,32.7,31.7,29.69,WSW,248,0.0,0.0,96,0.00,CLR,,0.00,WeatherDisplay:10.37,2013-03-18 12:46:00,
2013-03-18 07:51:00,32.9,31.9,29.69,WSW,248,0.0,0.0,96,0.00,CLR,,0.00,WeatherDisplay:10.37,2013-03-18 12:51:00,
2013-03-18 07:56:00,32.9,31.9,29.70,WSW,248,0.0,0.0,96,0.00,CLR,,0.00,WeatherDisplay:10.37,2013-03-18 12:56:00,
2013-03-18 08:01:00,33.1,32.1,29.70,WSW,248,0.0,0.0,96,0.00,CLR,,0.00,WeatherDisplay:10.37,2013-03-18 13:01:00,
2013-03-18 08:06:00,33.1,32.1,29.69,WSW,248,0.0,0.0,96,0.00,CLR,,0.00,WeatherDisplay:10.37,2013-03-18 13:06:00,
2013-03-18 08:11:00,33.3,32.2,29.69,WSW,248,12.7,12.7,96,0.00,CLR,,0.00,WeatherDisplay:10.37,2013-03-18 13:11:00,
2013-03-18 08:16:00,33.4,32.4,29.70,WSW,248,13.8,14.2,96,0.00,CLR,,0.00,WeatherDisplay:10.37,2013-03-18 13:16:00,
2013-03-18 08:21:00,33.4,32.2,29.70,West,270,10.8,11.6,95,0.00,CLR,,0.00,WeatherDisplay:10.37,2013-03-18 13:21:00,
2013-03-18 08:26:00,33.6,32.3,29.70,West,270,12.2,12.4,95,0.00,CLR,,0.00,WeatherDisplay:10.37,2013-03-18 13:26:00,
2013-03-18 08:31:00,33.6,32.3,29.70,West,270,10.4,10.4,95,0.00,CLR,,0.00,WeatherDisplay:10.37,2013-03-18 13:31:00,
2013-03-18 08:36:00,33.8,32.3,29.70,WSW,248,11.5,12.4,94,0.00,CLR,,0.00,WeatherDisplay:10.37,2013-03-18 13:36:00,
2013-03-18 08:41:00,34.0,32.2,29.71,West,270,18.4,18.4,93,0.00,CLR,,0.00,WeatherDisplay:10.37,2013-03-18 13:41:00,
2013-03-18 08:46:00,33.6,31.5,29.71,WNW,292,24.6,26.3,92,0.00,CLR,,0.00,WeatherDisplay:10.37,2013-03-18 13:46:00,
2013-03-18 08:51:00,33.3,30.6,29.72,WNW,292,13.8,13.8,90,0.00,CLR,,0.00,WeatherDisplay:10.37,2013-03-18 13:51:00,
2013-03-18 08:56:00,32.9,29.7,29.72,West,270,11.5,12.3,88,0.00,CLR,,0.00,WeatherDisplay:10.37,2013-03-18 13:56:00,
2013-03-18 09:01:00,32.7,29.3,29.72,WNW,292,10.5,11.3,87,0.00,CLR,,0.00,WeatherDisplay:10.37,2013-03-18 14:01:00,
2013-03-18 09:06:00,32.7,28.7,29.72,WNW,292,6.9,7.2,85,0.00,CLR,,0.00,WeatherDisplay:10.37,2013-03-18 14:06:00,
2013-03-18 09:11:00,33.4,29.4,29.72,West,270,9.2,9.2,85,0.00,CLR,,0.00,WeatherDisplay:10.37,2013-03-18 14:11:00,
2013-03-18 09:16:00,34.7,30.7,29.72,WNW,292,12.7,13.3,85,0.00,CLR,,0.00,WeatherDisplay:10.37,2013-03-18 14:16:00,
2013-03-18 09:21:00,36.5,31.8,29.72,NW,315,8.1,8.3,83,0.00,CLR,,0.00,WeatherDisplay:10.37,2013-03-18 14:21:00,
2013-03-18 09:26:00,37.6,32.3,29.73,WNW,292,6.2,6.7,81,0.00,CLR,,0.00,WeatherDisplay:10.37,2013-03-18 14:26:00,
2013-03-18 09:31:00,37.8,31.8,29.73,West,270,9.2,9.3,79,0.00,CLR,,0.00,WeatherDisplay:10.37,2013-03-18 14:31:00,
2013-03-18 09:36:00,37.0,29.8,29.73,NW,315,12.7,12.7,75,0.00,CLR,,0.00,WeatherDisplay:10.37,2013-03-18 14:36:00,
2013-03-18 09:41:00,36.5,29.0,29.73,WNW,292,15.0,15.0,74,0.00,CLR,,0.00,WeatherDisplay:10.37,2013-03-18 14:41:00,
2013-03-18 09:46:00,36.1,28.3,29.73,WNW,292,17.3,18.5,73,0.00,CLR,,0.00,WeatherDisplay:10.37,2013-03-18 14:46:00,
2013-03-18 09:51:00,35.2,27.1,29.74,West,270,16.1,16.1,72,0.00,CLR,,0.00,WeatherDisplay:10.37,2013-03-18 14:51:00,
2013-03-18 09:56:00,35.2,27.1,29.74,West,270,11.5,12.3,72,0.00,CLR,,0.00,WeatherDisplay:10.37,2013-03-18 14:56:00,
2013-03-18 10:01:00,35.8,27.6,29.74,WSW,248,15.1,16.2,72,0.00,CLR,,0.00,WeatherDisplay:10.37,2013-03-18 15:01:00,
2013-03-18 10:06:00,36.5,28.0,29.74,West,270,10.5,10.5,71,0.00,CLR,,0.00,WeatherDisplay:10.37,2013-03-18 15:06:00,
2013-03-18 10:11:00,37.0,28.2,29.74,West,270,10.4,10.4,70,0.00,CLR,,0.00,WeatherDisplay:10.37,2013-03-18 15:11:00,
2013-03-18 10:16:00,37.6,28.3,29.74,NW,315,11.5,12.7,69,0.00,CLR,,0.00,WeatherDisplay:10.37,2013-03-18 15:16:00,
2013-03-18 10:21:00,37.6,27.2,29.74,West,270,13.8,13.8,66,0.00,CLR,,0.00,WeatherDisplay:10.37,2013-03-18 15:21:00,
2013-03-18 10:26:00,37.8,27.0,29.75,West,270,16.1,17.4,65,0.00,CLR,,0.00,WeatherDisplay:10.37,2013-03-18 15:26:00,
2013-03-18 10:31:00,38.1,27.4,29.75,NW,315,7.3,7.8,65,0.00,CLR,,0.00,WeatherDisplay:10.37,2013-03-18 15:31:00,
2013-03-18 10:36:00,38.7,27.5,29.75,West,270,6.2,6.2,64,0.00,CLR,,0.00,WeatherDisplay:10.37,2013-03-18 15:36:00,
2013-03-18 10:41:00,39.4,28.2,29.75,NW,315,9.2,9.3,64,0.00,CLR,,0.00,WeatherDisplay:10.37,2013-03-18 15:41:00,
2013-03-18 10:46:00,40.1,28.5,29.75,North,0,6.9,6.9,63,0.00,CLR,,0.00,WeatherDisplay:10.37,2013-03-18 15:46:00,
2013-03-18 10:51:00,40.8,28.8,29.75,NW,315,5.8,5.9,62,0.00,CLR,,0.00,WeatherDisplay:10.37,2013-03-18 15:51:00,
2013-03-18 10:56:00,41.5,29.1,29.76,NW,315,4.6,4.6,61,0.00,CLR,,0.00,WeatherDisplay:10.37,2013-03-18 15:56:00,
2013-03-18 11:01:00,42.4,29.5,29.76,NNW,338,8.1,9.0,60,0.00,CLR,,0.00,WeatherDisplay:10.37,2013-03-18 16:01:00,
2013-03-18 11:06:00,42.1,28.4,29.75,NNW,338,5.8,9.1,58,0.00,CLR,,0.00,WeatherDisplay:10.37,2013-03-18 16:06:00,
2013-03-18 11:11:00,41.7,27.6,29.76,NNW,338,9.2,10.4,57,0.00,CLR,,0.00,WeatherDisplay:10.37,2013-03-18 16:11:00,
2013-03-18 11:16:00,40.1,26.1,29.76,NNW,338,9.2,9.2,57,0.00,CLR,,0.00,WeatherDisplay:10.37,2013-03-18 16:16:00,
2013-03-18 11:21:00,40.6,27.0,29.76,NW,315,9.2,9.2,58,0.00,CLR,,0.00,WeatherDisplay:10.37,2013-03-18 16:21:00,
2013-03-18 11:26:00,40.1,26.5,29.76,NW,315,3.5,0.0,58,0.00,CLR,,0.00,WeatherDisplay:10.37,2013-03-18 16:26:00,
2013-03-18 11:31:00,39.7,24.9,29.76,NNW,338,7.8,7.9,55,0.00,CLR,,0.00,WeatherDisplay:10.37,2013-03-18 16:31:00,
2013-03-18 11:36:00,39.7,24.9,29.77,North,0,8.1,8.1,55,0.00,CLR,,0.00,WeatherDisplay:10.37,2013-03-18 16:36:00,
2013-03-18 11:41:00,39.7,24.9,29.77,NNW,338,9.5,10.1,55,0.00,CLR,,0.00,WeatherDisplay:10.37,2013-03-18 16:41:00,
2013-03-18 11:46:00,38.8,24.0,29.77,NNW,338,10.4,10.6,55,0.00,CLR,,0.00,WeatherDisplay:10.37,2013-03-18 16:46:00,
2013-03-18 11:51:00,38.3,23.5,29.77,NNW,338,6.9,7.8,55,0.00,CLR,,0.00,WeatherDisplay:10.37,2013-03-18 16:51:00,
2013-03-18 11:56:00,37.6,22.9,29.78,NW,315,6.9,7.2,55,0.00,CLR,,0.00,WeatherDisplay:10.37,2013-03-18 16:56:00,
2013-03-18 12:01:00,37.4,23.1,29.78,NNW,338,7.8,7.8,56,0.00,CLR,,0.00,WeatherDisplay:10.37,2013-03-18 17:01:00,
2013-03-18 12:06:00,36.3,22.1,29.79,North,0,8.1,8.1,56,0.00,CLR,,0.00,WeatherDisplay:10.37,2013-03-18 17:06:00,
2013-03-18 12:11:00,36.3,22.5,29.79,NW,315,6.9,6.9,57,0.00,CLR,,0.00,WeatherDisplay:10.37,2013-03-18 17:11:00,
2013-03-18 12:16:00,36.3,22.1,29.79,WNW,292,9.2,10.8,56,0.00,CLR,,0.00,WeatherDisplay:10.37,2013-03-18 17:16:00,
2013-03-18 12:21:00,36.0,21.3,29.79,NNW,338,12.7,12.7,55,0.00,CLR,,0.00,WeatherDisplay:10.37,2013-03-18 17:21:00,
2013-03-18 12:26:00,35.8,21.2,29.81,NNW,338,9.2,9.3,55,0.00,CLR,,0.00,WeatherDisplay:10.37,2013-03-18 17:26:00,
2013-03-18 12:31:00,35.2,20.2,29.81,WNW,292,5.8,7.5,54,0.00,CLR,,0.00,WeatherDisplay:10.37,2013-03-18 17:31:00,
2013-03-18 12:36:00,34.5,19.6,29.79,WSW,248,8.1,8.4,54,0.00,CLR,,0.00,WeatherDisplay:10.37,2013-03-18 17:36:00,
2013-03-18 12:41:00,34.2,19.7,29.79,WNW,292,6.9,6.9,55,0.00,CLR,,0.00,WeatherDisplay:10.37,2013-03-18 17:41:00,
2013-03-18 12:46:00,34.7,20.6,29.81,West,270,13.2,13.2,56,0.00,CLR,,0.00,WeatherDisplay:10.37,2013-03-18 17:46:00,
2013-03-18 12:51:00,34.7,20.6,29.81,NW,315,18.4,18.4,56,0.00,CLR,,0.00,WeatherDisplay:10.37,2013-03-18 17:51:00,
2013-03-18 12:56:00,35.1,20.9,29.81,WNW,292,6.9,6.9,56,0.00,CLR,,0.00,WeatherDisplay:10.37,2013-03-18 17:56:00,
2013-03-18 13:01:00,35.2,21.1,29.81,West,270,9.2,9.6,56,0.00,CLR,,0.00,WeatherDisplay:10.37,2013-03-18 18:01:00,
2013-03-18 13:06:00,34.7,20.2,29.81,West,270,20.8,22.3,55,0.00,CLR,,0.00,WeatherDisplay:10.37,2013-03-18 18:06:00,
2013-03-18 13:11:00,34.2,19.7,29.81,WNW,292,6.9,7.8,55,0.00,CLR,,0.00,WeatherDisplay:10.37,2013-03-18 18:11:00,
2013-03-18 13:16:00,34.7,21.0,29.81,West,270,4.6,13.2,57,0.00,CLR,,0.00,WeatherDisplay:10.37,2013-03-18 18:16:00,
2013-03-18 13:21:00,35.1,21.3,29.81,West,270,19.6,19.6,57,0.00,CLR,,0.00,WeatherDisplay:10.37,2013-03-18 18:21:00,
2013-03-18 13:26:00,34.7,21.0,29.82,NW,315,10.4,11.3,57,0.00,CLR,,0.00,WeatherDisplay:10.37,2013-03-18 18:26:00,
2013-03-18 13:31:00,34.0,19.9,29.82,WNW,292,19.7,19.7,56,0.00,CLR,,0.00,WeatherDisplay:10.37,2013-03-18 18:31:00,
2013-03-18 13:36:00,33.8,19.7,29.82,West,270,19.6,19.6,56,0.00,CLR,,0.00,WeatherDisplay:10.37,2013-03-18 18:36:00,
2013-03-18 13:41:00,34.0,19.9,29.82,WNW,292,8.1,8.7,56,0.00,CLR,,0.00,WeatherDisplay:10.37,2013-03-18 18:41:00,
2013-03-18 13:46:00,34.0,19.9,29.83,WNW,292,13.8,14.1,56,0.00,CLR,,0.00,WeatherDisplay:10.37,2013-03-18 18:46:00,
2013-03-18 13:51:00,33.4,19.0,29.82,NW,315,21.9,21.9,55,0.00,CLR,,0.00,WeatherDisplay:10.37,2013-03-18 18:51:00,
2013-03-18 13:56:00,32.9,18.5,29.83,West,270,14.6,15.1,55,0.00,CLR,,0.00,WeatherDisplay:10.37,2013-03-18 18:56:00,
2013-03-18 14:01:00,32.4,18.0,29.83,NNW,338,20.7,20.7,55,0.00,CLR,,0.00,WeatherDisplay:10.37,2013-03-18 19:01:00,
2013-03-18 14:06:00,32.2,17.8,29.83,West,270,12.7,12.7,55,0.00,CLR,,0.00,WeatherDisplay:10.37,2013-03-18 19:06:00,
2013-03-18 14:11:00,32.7,19.1,29.84,NW,315,11.1,11.1,57,0.00,CLR,,0.00,WeatherDisplay:10.37,2013-03-18 19:11:00,
2013-03-18 14:16:00,32.9,19.3,29.84,WNW,292,16.2,16.5,57,0.00,CLR,,0.00,WeatherDisplay:10.37,2013-03-18 19:16:00,
2013-03-18 14:21:00,33.3,19.2,29.84,West,270,12.7,13.6,56,0.00,CLR,,0.00,WeatherDisplay:10.37,2013-03-18 19:21:00,
2013-03-18 14:26:00,32.9,18.9,29.84,NNW,338,14.6,14.6,56,0.00,CLR,,0.00,WeatherDisplay:10.37,2013-03-18 19:26:00,
2013-03-18 14:31:00,32.7,18.7,29.84,NW,315,16.1,16.1,56,0.00,CLR,,0.00,WeatherDisplay:10.37,2013-03-18 19:31:00,
2013-03-18 14:36:00,32.7,18.7,29.84,West,270,17.3,17.3,56,0.00,CLR,,0.00,WeatherDisplay:10.37,2013-03-18 19:36:00,
2013-03-18 14:41:00,32.2,17.4,29.84,West,270,18.4,19.0,54,0.00,CLR,,0.00,WeatherDisplay:10.37,2013-03-18 19:41:00,
2013-03-18 14:46:00,31.6,17.3,29.84,NNW,338,9.2,9.5,55,0.00,CLR,,0.00,WeatherDisplay:10.37,2013-03-18 19:46:00,
2013-03-18 14:51:00,31.8,17.9,29.84,West,270,11.5,12.4,56,0.00,CLR,,0.00,WeatherDisplay:10.37,2013-03-18 19:51:00,
2013-03-18 14:56:00,31.3,17.4,29.84,West,270,21.9,21.9,56,0.00,CLR,,0.00,WeatherDisplay:10.37,2013-03-18 19:56:00,
2013-03-18 15:01:00,30.7,17.3,29.84,West,270,25.3,25.3,57,0.00,CLR,,0.00,WeatherDisplay:10.37,2013-03-18 20:01:00,
2013-03-18 15:06:00,30.0,16.6,29.84,WNW,292,9.2,9.3,57,0.00,CLR,,0.00,WeatherDisplay:10.37,2013-03-18 20:06:00,
2013-03-18 15:11:00,29.8,16.8,29.85,NW,315,13.8,13.8,58,0.00,CLR,,0.00,WeatherDisplay:10.37,2013-03-18 20:11:00,
2013-03-18 15:16:00,30.2,17.6,29.84,WNW,292,6.9,7.2,59,0.00,CLR,,0.00,WeatherDisplay:10.37,2013-03-18 20:16:00,
2013-03-18 15:21:00,30.7,18.1,29.85,West,270,17.3,18.2,59,0.00,CLR,,0.00,WeatherDisplay:10.37,2013-03-18 20:21:00,
2013-03-18 15:26:00,30.6,17.9,29.85,NW,315,18.4,19.3,59,0.00,CLR,,0.00,WeatherDisplay:10.37,2013-03-18 20:26:00,
2013-03-18 15:31:00,30.4,17.4,29.85,WNW,292,16.2,17.4,58,0.00,CLR,,0.00,WeatherDisplay:10.37,2013-03-18 20:31:00,
2013-03-18 15:36:00,29.7,16.3,29.85,West,270,19.6,20.5,57,0.00,CLR,,0.00,WeatherDisplay:10.37,2013-03-18 20:36:00,
2013-03-18 15:41:00,28.8,15.4,29.86,West,270,11.5,12.0,57,0.00,CLR,,0.00,WeatherDisplay:10.37,2013-03-18 20:41:00,
2013-03-18 15:46:00,28.4,15.1,29.86,WNW,292,17.3,18.8,57,0.00,CLR,,0.00,WeatherDisplay:10.37,2013-03-18 20:46:00,
2013-03-18 15:51:00,28.2,14.9,29.85,West,270,9.2,10.1,57,0.00,CLR,,0.00,WeatherDisplay:10.37,2013-03-18 20:51:00,
2013-03-18 15:56:00,28.4,15.1,29.85,NW,315,10.0,10.0,57,0.00,CLR,,0.00,WeatherDisplay:10.37,2013-03-18 20:56:00,
2013-03-18 16:01:00,28.6,15.7,29.86,WNW,292,16.1,17.1,58,0.00,CLR,,0.00,WeatherDisplay:10.37,2013-03-18 21:01:00,
2013-03-18 16:06:00,28.9,15.6,29.86,WSW,248,8.1,8.4,57,0.00,CLR,,0.00,WeatherDisplay:10.37,2013-03-18 21:06:00,
2013-03-18 16:11:00,29.3,15.9,29.87,WNW,292,20.3,20.3,57,0.00,CLR,,0.00,WeatherDisplay:10.37,2013-03-18 21:11:00,
2013-03-18 16:16:00,28.9,15.2,29.86,West,270,19.6,20.8,56,0.00,CLR,,0.00,WeatherDisplay:10.37,2013-03-18 21:16:00,
2013-03-18 16:21:00,28.2,14.5,29.86,WNW,292,18.4,20.0,56,0.00,CLR,,0.00,WeatherDisplay:10.37,2013-03-18 21:21:00,
2013-03-18 16:26:00,28.0,14.3,29.87,NW,315,18.4,18.4,56,0.00,CLR,,0.00,WeatherDisplay:10.37,2013-03-18 21:26:00,
2013-03-18 16:31:00,28.0,14.3,29.87,NW,315,9.2,10.4,56,0.00,CLR,,0.00,WeatherDisplay:10.37,2013-03-18 21:31:00,
2013-03-18 16:36:00,28.0,14.3,29.87,NW,315,16.1,17.1,56,0.00,CLR,,0.00,WeatherDisplay:10.37,2013-03-18 21:36:00,
2013-03-18 16:41:00,28.2,14.9,29.87,WNW,292,17.3,17.8,57,0.00,CLR,,0.00,WeatherDisplay:10.37,2013-03-18 21:41:00,
2013-03-18 16:46:00,28.0,14.8,29.87,WNW,292,9.5,10.1,57,0.00,CLR,,0.00,WeatherDisplay:10.37,2013-03-18 21:46:00,
2013-03-18 16:51:00,28.0,14.8,29.87,NW,315,8.1,8.3,57,0.00,CLR,,0.00,WeatherDisplay:10.37,2013-03-18 21:51:00,
2013-03-18 16:56:00,27.9,14.6,29.87,NW,315,15.0,15.0,57,0.00,CLR,,0.00,WeatherDisplay:10.37,2013-03-18 21:56:00,
2013-03-18 17:01:00,27.9,14.6,29.87,West,270,13.8,13.8,57,0.00,CLR,,0.00,WeatherDisplay:10.37,2013-03-18 22:01:00,
2013-03-18 17:06:00,28.0,15.2,29.88,West,270,12.7,13.3,58,0.00,CLR,,0.00,WeatherDisplay:10.37,2013-03-18 22:06:00,
2013-03-18 17:11:00,27.9,14.6,29.88,West,270,17.3,17.3,57,0.00,CLR,,0.00,WeatherDisplay:10.37,2013-03-18 22:11:00,
2013-03-18 17:16:00,27.7,14.4,29.88,West,270,11.5,11.5,57,0.00,CLR,,0.00,WeatherDisplay:10.37,2013-03-18 22:16:00,
2013-03-18 17:21:00,27.5,14.2,29.88,WNW,292,11.5,12.7,57,0.00,CLR,,0.00,WeatherDisplay:10.37,2013-03-18 22:21:00,
2013-03-18 17:26:00,27.5,13.8,29.88,WNW,292,25.3,25.3,56,0.00,CLR,,0.00,WeatherDisplay:10.37,2013-03-18 22:26:00,
2013-03-18 17:31:00,27.1,13.5,29.88,NNW,338,15.0,15.9,56,0.00,CLR,,0.00,WeatherDisplay:10.37,2013-03-18 22:31:00,
2013-03-18 17:36:00,27.0,13.3,29.88,WNW,292,19.6,19.6,56,0.00,CLR,,0.00,WeatherDisplay:10.37,2013-03-18 22:36:00,
2013-03-18 17:41:00,27.0,13.3,29.88,WNW,292,10.4,10.7,56,0.00,CLR,,0.00,WeatherDisplay:10.37,2013-03-18 22:41:00,
2013-03-18 17:46:00,27.0,13.7,29.88,West,270,12.7,13.3,57,0.00,CLR,,0.00,WeatherDisplay:10.37,2013-03-18 22:46:00,
2013-03-18 17:51:00,27.0,13.7,29.88,WNW,292,12.7,12.7,57,0.00,CLR,,0.00,WeatherDisplay:10.37,2013-03-18 22:51:00,
2013-03-18 17:56:00,27.1,14.7,29.88,West,270,16.1,17.1,59,0.00,CLR,,0.00,WeatherDisplay:10.37,2013-03-18 22:56:00,
2013-03-18 18:01:00,27.1,14.7,29.89,WNW,292,15.1,16.2,59,0.00,CLR,,0.00,WeatherDisplay:10.37,2013-03-18 23:01:00,
2013-03-18 18:06:00,27.3,14.9,29.89,NW,315,15.4,15.4,59,0.00,CLR,,0.00,WeatherDisplay:10.37,2013-03-18 23:06:00,
2013-03-18 18:11:00,27.1,14.3,29.89,WNW,292,17.3,17.3,58,0.00,CLR,,0.00,WeatherDisplay:10.37,2013-03-18 23:11:00,
2013-03-18 18:16:00,27.0,14.1,29.89,NNW,338,11.5,12.2,58,0.00,CLR,,0.00,WeatherDisplay:10.37,2013-03-18 23:16:00,
2013-03-18 18:21:00,27.1,14.7,29.89,WNW,292,9.2,9.2,59,0.00,CLR,,0.00,WeatherDisplay:10.37,2013-03-18 23:21:00,
2013-03-18 18:26:00,27.3,14.9,29.90,WNW,292,18.4,18.4,59,0.00,CLR,,0.00,WeatherDisplay:10.37,2013-03-18 23:26:00,
2013-03-18 18:31:00,27.1,14.7,29.89,WSW,248,8.1,8.7,59,0.00,CLR,,0.00,WeatherDisplay:10.37,2013-03-18 23:31:00,
2013-03-18 18:36:00,27.0,14.5,29.89,WNW,292,16.1,16.1,59,0.00,CLR,,0.00,WeatherDisplay:10.37,2013-03-18 23:36:00,
2013-03-18 18:41:00,27.0,14.5,29.89,West,270,18.4,18.4,59,0.00,CLR,,0.00,WeatherDisplay:10.37,2013-03-18 23:41:00,
2013-03-18 18:46:00,27.0,14.9,29.89,WNW,292,9.2,9.8,60,0.00,CLR,,0.00,WeatherDisplay:10.37,2013-03-18 23:46:00,
2013-03-18 18:51:00,27.0,14.9,29.89,West,270,6.9,11.3,60,0.00,CLR,,0.00,WeatherDisplay:10.37,2013-03-18 23:51:00,
2013-03-18 18:56:00,27.0,14.9,29.89,NNW,338,1.4,1.4,60,0.00,CLR,,0.00,WeatherDisplay:10.37,2013-03-18 23:56:00,
2013-03-18 19:01:00,26.8,14.7,29.89,West,270,16.5,16.5,60,0.00,CLR,,0.00,WeatherDisplay:10.37,2013-03-19 00:01:00,
2013-03-18 19:06:00,26.8,14.4,29.89,WNW,292,8.1,8.7,59,0.00,CLR,,0.00,WeatherDisplay:10.37,2013-03-19 00:06:00,
2013-03-18 19:11:00,26.4,14.4,29.90,WNW,292,5.8,6.1,60,0.00,CLR,,0.00,WeatherDisplay:10.37,2013-03-19 00:11:00,
2013-03-18 19:17:00,26.4,14.4,29.90,WNW,292,6.2,6.4,60,0.00,CLR,,0.00,WeatherDisplay:10.37,2013-03-19 00:17:00,
2013-03-18 19:22:00,26.2,14.2,29.90,WNW,292,8.4,9.0,60,0.00,CLR,,0.00,WeatherDisplay:10.37,2013-03-19 00:22:00,
2013-03-18 19:27:00,25.9,13.9,29.90,West,270,9.7,9.7,60,0.00,CLR,,0.00,WeatherDisplay:10.37,2013-03-19 00:27:00,
2013-03-18 19:32:00,25.9,13.9,29.90,WNW,292,1.4,1.4,60,0.00,CLR,,0.00,WeatherDisplay:10.37,2013-03-19 00:32:00,
2013-03-18 19:37:00,25.5,13.5,29.91,WNW,292,5.9,0.0,60,0.00,CLR,,0.00,WeatherDisplay:10.37,2013-03-19 00:37:00,
2013-03-18 19:42:00,25.5,13.5,29.91,WNW,292,4.6,4.6,60,0.00,CLR,,0.00,WeatherDisplay:10.37,2013-03-19 00:42:00,
2013-03-18 19:47:00,25.5,13.9,29.91,West,270,8.1,8.4,61,0.00,CLR,,0.00,WeatherDisplay:10.37,2013-03-19 00:47:00,
2013-03-18 19:52:00,25.2,13.6,29.91,West,270,10.4,10.4,61,0.00,CLR,,0.00,WeatherDisplay:10.37,2013-03-19 00:52:00,
2013-03-18 19:57:00,25.0,13.4,29.92,WNW,292,0.0,0.0,61,0.00,CLR,,0.00,WeatherDisplay:10.37,2013-03-19 00:57:00,
2013-03-18 20:02:00,25.0,13.8,29.92,NW,315,2.4,2.6,62,0.00,CLR,,0.00,WeatherDisplay:10.37,2013-03-19 01:02:00,
2013-03-18 20:07:00,24.8,13.6,29.92,NW,315,0.0,0.0,62,0.00,CLR,,0.00,WeatherDisplay:10.37,2013-03-19 01:07:00,
2013-03-18 20:12:00,24.6,13.4,29.92,WNW,292,8.1,8.1,62,0.00,CLR,,0.00,WeatherDisplay:10.37,2013-03-19 01:12:00,
2013-03-18 20:17:00,24.4,13.6,29.93,NW,315,0.0,0.1,63,0.00,CLR,,0.00,WeatherDisplay:10.37,2013-03-19 01:17:00,
2013-03-18 20:22:00,24.4,13.6,29.93,WNW,292,6.9,6.9,63,0.00,CLR,,0.00,WeatherDisplay:10.37,2013-03-19 01:22:00,
2013-03-18 20:27:00,24.3,13.5,29.93,West,270,1.4,1.4,63,0.00,CLR,,0.00,WeatherDisplay:10.37,2013-03-19 01:27:00,
2013-03-18 20:33:00,24.3,13.8,29.93,NNW,338,4.1,4.1,64,0.00,CLR,,0.00,WeatherDisplay:10.37,2013-03-19 01:33:00,
2013-03-18 20:37:00,24.1,13.7,29.93,WNW,292,6.9,6.9,64,0.00,CLR,,0.00,WeatherDisplay:10.37,2013-03-19 01:37:00,
2013-03-18 20:42:00,24.1,13.7,29.93,NNW,338,5.8,5.8,64,0.00,CLR,,0.00,WeatherDisplay:10.37,2013-03-19 01:42:00,
2013-03-18 20:47:00,23.9,13.5,29.94,NNW,338,5.8,6.3,64,0.00,CLR,,0.00,WeatherDisplay:10.37,2013-03-19 01:47:00,
2013-03-18 20:52:00,23.7,13.3,29.94,NW,315,4.6,4.6,64,0.00,CLR,,0.00,WeatherDisplay:10.37,2013-03-19 01:52:00,
2013-03-18 20:57:00,23.7,13.3,29.94,NNW,338,0.0,0.0,64,0.00,CLR,,0.00,WeatherDisplay:10.37,2013-03-19 01:57:00,
2013-03-18 21:02:00,23.5,13.1,29.94,WNW,292,2.3,2.3,64,0.00,CLR,,0.00,WeatherDisplay:10.37,2013-03-19 02:02:00,
2013-03-18 21:07:00,23.5,13.1,29.95,WNW,292,3.5,3.5,64,0.00,CLR,,0.00,WeatherDisplay:10.37,2013-03-19 02:07:00,
2013-03-18 21:12:00,23.4,13.0,29.95,NW,315,0.0,0.0,64,0.00,CLR,,0.00,WeatherDisplay:10.37,2013-03-19 02:12:00,
2013-03-18 21:17:00,23.2,12.8,29.95,NW,315,0.0,0.0,64,0.00,CLR,,0.00,WeatherDisplay:10.37,2013-03-19 02:17:00,
2013-03-18 21:22:00,23.2,12.8,29.95,NW,315,8.1,8.1,64,0.00,CLR,,0.00,WeatherDisplay:10.37,2013-03-19 02:22:00,
2013-03-18 21:27:00,23.2,12.8,29.96,West,270,5.8,6.4,64,0.00,CLR,,0.00,WeatherDisplay:10.37,2013-03-19 02:27:00,
2013-03-18 21:32:00,22.8,12.5,29.96,WNW,292,9.2,9.2,64,0.00,CLR,,0.00,WeatherDisplay:10.37,2013-03-19 02:32:00,
2013-03-18 21:37:00,23.0,12.6,29.96,WNW,292,8.1,0.0,64,0.00,CLR,,0.00,WeatherDisplay:10.37,2013-03-19 02:37:00,
2013-03-18 21:42:00,22.6,12.3,29.95,NW,315,0.0,0.0,64,0.00,CLR,,0.00,WeatherDisplay:10.37,2013-03-19 02:42:00,
2013-03-18 21:47:00,22.6,12.6,29.96,NNW,338,8.1,8.1,65,0.00,CLR,,0.00,WeatherDisplay:10.37,2013-03-19 02:47:00,
2013-03-18 21:52:00,22.5,12.5,29.96,NNW,338,5.9,6.4,65,0.00,CLR,,0.00,WeatherDisplay:10.37,2013-03-19 02:52:00,
2013-03-18 21:58:00,22.5,12.5,29.96,NW,315,8.1,8.1,65,0.00,CLR,,0.00,WeatherDisplay:10.37,2013-03-19 02:58:00,
2013-03-18 22:03:00,22.3,11.9,29.97,NNW,338,9.2,9.2,64,0.00,CLR,,0.00,WeatherDisplay:10.37,2013-03-19 03:03:00,
2013-03-18 22:08:00,22.1,11.8,29.97,NNW,338,11.5,11.9,64,0.00,CLR,,0.00,WeatherDisplay:10.37,2013-03-19 03:08:00,
2013-03-18 22:13:00,22.1,11.8,29.97,NNW,338,0.0,0.0,64,0.00,CLR,,0.00,WeatherDisplay:10.37,2013-03-19 03:13:00,
2013-03-18 22:18:00,21.9,11.6,29.97,NW,315,4.6,5.1,64,0.00,CLR,,0.00,WeatherDisplay:10.37,2013-03-19 03:18:00,
2013-03-18 22:23:00,21.7,11.4,29.97,WNW,292,0.0,0.0,64,0.00,CLR,,0.00,WeatherDisplay:10.37,2013-03-19 03:23:00,
2013-03-18 22:28:00,21.7,11.4,29.97,NW,315,6.9,6.9,64,0.00,CLR,,0.00,WeatherDisplay:10.37,2013-03-19 03:28:00,
2013-03-18 22:33:00,21.6,11.3,29.97,NW,315,8.1,8.1,64,0.00,CLR,,0.00,WeatherDisplay:10.37,2013-03-19 03:33:00,
2013-03-18 22:38:00,21.6,11.3,29.97,NW,315,5.9,6.4,64,0.00,CLR,,0.00,WeatherDisplay:10.37,2013-03-19 03:38:00,
2013-03-18 22:43:00,21.4,11.1,29.97,NW,315,5.8,5.8,64,0.00,CLR,,0.00,WeatherDisplay:10.37,2013-03-19 03:43:00,
2013-03-18 22:48:00,21.4,11.1,29.97,NW,315,6.2,6.7,64,0.00,CLR,,0.00,WeatherDisplay:10.37,2013-03-19 03:48:00,
2013-03-18 22:53:00,21.2,10.9,29.97,WNW,292,10.4,10.7,64,0.00,CLR,,0.00,WeatherDisplay:10.37,2013-03-19 03:53:00,
2013-03-18 22:58:00,21.0,10.7,29.97,NNW,338,11.5,11.5,64,0.00,CLR,,0.00,WeatherDisplay:10.37,2013-03-19 03:58:00,
2013-03-18 23:00:00,21.0,10.7,29.97,NW,315,11.5,11.7,64,0.00,CLR,,0.00,WeatherDisplay:10.37,2013-03-19 04:00:00,
2013-03-18 23:05:00,20.8,10.6,29.96,NNW,338,6.2,6.7,64,0.00,CLR,,0.00,WeatherDisplay:10.37,2013-03-19 04:05:00,
2013-03-18 23:10:00,20.8,10.6,29.96,NNW,338,9.2,9.3,64,0.00,CLR,,0.00,WeatherDisplay:10.37,2013-03-19 04:10:00,
2013-03-18 23:15:00,20.7,10.4,29.96,NNW,338,8.1,8.4,64,0.00,CLR,,0.00,WeatherDisplay:10.37,2013-03-19 04:15:00,
2013-03-18 23:20:00,20.7,10.4,29.96,NNW,338,7.0,7.5,64,0.00,CLR,,0.00,WeatherDisplay:10.37,2013-03-19 04:20:00,
2013-03-18 23:25:00,20.3,10.1,29.95,NNW,338,8.9,8.9,64,0.00,CLR,,0.00,WeatherDisplay:10.37,2013-03-19 04:25:00,
2013-03-18 23:30:00,20.3,10.1,29.95,NNW,338,4.6,4.9,64,0.00,CLR,,0.00,WeatherDisplay:10.37,2013-03-19 04:30:00,
2013-03-18 23:35:00,20.1,10.2,29.95,NNW,338,1.1,1.1,65,0.00,CLR,,0.00,WeatherDisplay:10.37,2013-03-19 04:35:00,
2013-03-18 23:40:00,19.9,10.1,29.95,NW,315,0.5,0.5,65,0.00,CLR,,0.00,WeatherDisplay:10.37,2013-03-19 04:40:00,
2013-03-18 23:45:00,19.8,9.9,29.96,NNW,338,9.2,9.2,65,0.00,CLR,,0.00,WeatherDisplay:10.37,2013-03-19 04:45:00,
2013-03-18 23:50:00,19.9,10.1,29.96,NNW,338,8.1,8.1,65,0.00,CLR,,0.00,WeatherDisplay:10.37,2013-03-19 04:50:00,
2013-03-18 23:55:00,19.8,9.9,29.97,NNW,338,5.8,5.8,65,0.00,CLR,,0.00,WeatherDisplay:10.37,2013-03-19 04:55:00,